Weather in Akhtanizovskaya

Russia / Krasnodar Krai     45°19′14″N   37°06′06″E
temp.,
°C
wind,
m/s
gust,
m/s
humid.,
%
clouds,
%
prec.,
mm/h
press.,
hPa
HPBL,
m
29 november, mon
mon2900:00+13ssw10168650 0.0 1009640
03:00+13ssw71391100 0.0 1009455
06:00+13s914915 0.0 1009378
09:00+14s10168780 0.0 1008390
12:00+15sse12208354 0.0 1006509
15:00+16sse14247459 0.0 1003599
18:00+15s172872100 0.0 1000541
21:00+16sw122268100 0.1 1002880
30 november, tue
tue3000:00+13sw101992100 3.1 10011092
03:00+12ssw111692100 7.1 1001754
06:00+12sw121886100 0.9 1002861
09:00+12wsw68847 1.9 1004501
12:00+13sw467822 0.1 1003725
15:00+12s7983100 0.2 999646
18:00+11se1289100 1.9 994122
21:00+9nw579385 25.3 994454
1 december, wed
wed100:00+10ssw101277100 1.1 9931046
03:00+4nw151896100 2.8 999978
06:00+6wnw11136591 0.5 10051530
09:00+5w812624 0.5 10091164
12:00+7sw510555 0.0 10091278
15:00+9wsw7114983 0.0 10071670
18:00+8w61060100 0.2 1008742
21:00+7w812715 0.3 1010743
2 december, thu
thu200:00+6w610705 0.0 1012514
03:00+6wsw49685 0.0 1013448
06:00+6wsw47685 0.0 1014447
09:00+8sw58675 0.0 1015480
12:00+11sw9116513 0.1 10151343
15:00+11ssw912681 0.1 10151161
18:00+10ssw1014735 0.0 1015825
21:00+10ssw11157061 0.0 1015719
3 december, fri
fri300:00+11s11167325 0.0 1015700
03:00+11s10157615 0.0 1015597
06:00+11s10147981 0.0 1015541
09:00+11s9147838 0.0 1016529
12:00+13s10137238 0.0 1015605
15:00+12s91373100 0.0 1015475
18:00+12s101578100 0.0 1014384
21:00+12s10167827 0.0 1014419